Home > Weather > Fayetteville > Past weeks

Flag for USA Weather for the Past 2 Weeks in Fayetteville, North Carolina, USA

Now
64 °F

Mostly cloudy.


Feels Like: 64 °F
Forecast: 54 / 79 °F
Wind: 6 mph from West

Location: Fayetteville Regional Airport

Current Time: May 6, 2016 at 8:43:43 PM

Latest Report: May 6, 2016 at 7:53 PM


Visibility: 10 mi

Pressure: 29.76 "Hg

Humidity: 54%

Dew Point: 47 °F

Location of FayettevilleLocation

Historic Weather in Fayetteville — Graph

°F

Fayetteville Temperature Yesterday

Maximum temperature yesterday: 64 °F (at 12:53 AM)
Minimum temperature yesterday: 52 °F (at 11:53 PM)
Average temperature yesterday: 58 °F

High & Low Weather Summary for the Past Weeks

 TemperatureHumidityPressure
High88 °F (Apr 27, 3:53 PM)97% (May 3, 6:53 AM)30.11 "Hg (May 3, 6:53 AM)
Low50 °F (May 6, 3:53 AM)33% (Apr 24, 4:53 PM)29.50 "Hg (May 5, 4:53 AM)
Average68 °F72%29.88 "Hg
* Reported Apr 21 6:53 PM — May 6 6:53 PM, Fayetteville, Weather by CustomWeather, © 2016

Note: Actual official high and low records may vary slightly from our data, if they occured in-between our weather recording intervals... More about our weather records

Advertising

Fayetteville Weather History for the Previous 24 Hours

Scroll right to see more
 ConditionsComfort  
Time TempWeatherWind HumidityBarometerVisibility
6:53 PM
Fri, May 6
66 °FMore clouds than sun.6 mph54%29.76 "Hg10 mi
5:53 PM66 °FBroken clouds.9 mph56%29.75 "Hg10 mi
4:53 PM68 °FPassing clouds.13 mph49%29.73 "Hg10 mi
3:53 PM63 °FPartly sunny.14 mph65%29.74 "Hg10 mi
2:53 PM68 °FScattered clouds.12 mph49%29.73 "Hg10 mi
1:53 PM65 °FPartly sunny.12 mph54%29.74 "Hg10 mi
12:53 PM59 °FLight rain. Mostly cloudy.14 mph69%29.75 "Hg10 mi
11:53 AM63 °FPartly sunny.14 mph58%29.74 "Hg10 mi
10:53 AM60 °FCloudy.13 mph67%29.74 "Hg10 mi
9:53 AM57 °FMostly cloudy.9 mph74%29.73 "Hg10 mi
8:53 AM54 °FPartly sunny.9 mph83%29.72 "Hg10 mi
7:53 AM52 °FOvercast.9 mph86%29.70 "Hg10 mi
6:53 AM51 °FLight rain. Overcast.7 mph89%29.69 "Hg10 mi
5:53 AM51 °FLight rain. Mostly cloudy.9 mph86%29.67 "Hg10 mi
4:53 AM51 °FOvercast.9 mph83%29.65 "Hg10 mi
3:53 AM50 °FOvercast.8 mph86%29.65 "Hg10 mi
2:53 AM51 °FOvercast.10 mph80%29.65 "Hg10 mi
1:53 AM51 °FOvercast.10 mph80%29.66 "Hg10 mi
1:01 AM51 °FOvercast.9 mph80%29.69 "Hg10 mi
12:53 AM51 °FOvercast.9 mph80%29.67 "Hg10 mi
11:53 PM
Thu, May 5
52 °FOvercast.12 mph75%29.67 "Hg10 mi
10:53 PM53 °FOvercast.9 mph72%29.67 "Hg10 mi
9:53 PM53 °FMostly cloudy.10 mph72%29.66 "Hg10 mi
8:53 PM54 °FMore clouds than sun.14 mph72%29.64 "Hg10 mi
Weather by CustomWeather, © 2016

See weather overviewHow to use our weather pages